Home   Weather   Görlitz   Past weeks

Flag for Germany Past Weather in Görlitz, Saxony, Germany — Yesterday and Last 2 Weeks

Now
31 °F

Overcast.


Feels Like: 26 °F
Forecast: 36 / 45 °F
Wind: 6 mph from Northwest

Location: Liberec

Current Time: Feb 25, 2017 at 7:46:41 am

Latest Report: Feb 25, 2017 at 7:00 am


Visibility: 16 mi

Pressure: 30.16 "Hg

Humidity: 80%

Dew Point: 26 °F

Location of GörlitzLocation

Past Weather in Görlitz — Graph

°F

Görlitz Temperature Yesterday

Maximum temperature yesterday: 47 °F (at 12:00 am)
Minimum temperature yesterday: 28 °F (at 11:00 pm)
Average temperature yesterday: 37 °F

High & Low Weather Summary for the Past Weeks

 TemperatureHumidityPressure
High51 °F (Feb 15, 3:00 pm)97% (Feb 17, 8:00 am)30.66 "Hg (Feb 17, 8:00 am)
Low18 °F (Feb 13, 5:00 am)17% (Feb 15, 2:00 pm)29.29 "Hg (Feb 23, 8:00 pm)
Average36 °F76%30.19 "Hg
* Reported Feb 10 6:00 am — Feb 25 6:00 am, Görlitz, Weather by CustomWeather, © 2017

Note: Actual official high and low records may vary slightly from our data, if they occured in-between our weather recording intervals... More about our weather records

Advertising

Görlitz Weather History for the Previous 24 Hours

Scroll right to see more
 ConditionsComfort  
Time TempWeatherWind HumidityBarometerVisibility
6:00 am
Sat, Feb 25
31 °FChilly.5 mph81%30.14 "Hg12 mi
5:00 am31 °FChilly.6 mph84%30.12 "Hg12 mi
4:00 am31 °FRain showers. Overcast.7 mph87%30.10 "Hg12 mi
3:00 am32 °FLight rain. Overcast.5 mph82%30.09 "Hg7 mi
2:00 am31 °FChilly.2 mph86%30.08 "Hg12 mi
1:00 am30 °FChilly.1 mph90%30.06 "Hg12 mi
12:00 am29 °FChilly.1 mph87%30.06 "Hg12 mi
11:00 pm
Fri, Feb 24
28 °FChilly.1 mph93%30.06 "Hg12 mi
10:00 pm29 °FChilly.1 mph87%30.04 "Hg12 mi
9:00 pm31 °FPassing clouds.3 mph88%30.03 "Hg17 mi
8:00 pm31 °FOvercast.7 mph88%30.00 "Hg12 mi
7:00 pm32 °FOvercast.2 mph95%29.96 "Hg9 mi
6:00 pm32 °FLight rain. Overcast.6 mph93%29.91 "Hg12 mi
5:00 pm32 °FSnow flurries. Cloudy.7 mph94%29.86 "Hg2 mi
4:00 pm33 °FPartly sunny.5 mph87%29.82 "Hg17 mi
3:00 pm34 °FSnow flurries. Overcast.8 mph82%29.79 "Hg4 mi
2:00 pm38 °FOvercast.8 mph65%29.75 "Hg17 mi
1:00 pm38 °FOvercast.10 mph64%29.72 "Hg9 mi
12:00 pm39 °FOvercast.9 mph67%29.70 "Hg9 mi
11:00 am36 °FLight snow. Overcast.8 mph74%29.68 "Hg3 mi
10:00 am36 °FOvercast.8 mph73%29.64 "Hg11 mi
9:00 am36 °FLight rain. Overcast.10 mph78%29.59 "Hg4 mi
8:00 am36 °FLight rain. Overcast.10 mph82%29.53 "Hg3 mi
7:00 am40 °FLight rain. Overcast.14 mph64%29.44 "Hg9 mi
Weather by CustomWeather, © 2017

See weather overviewHow to use our weather pages